Temperature
27 26 25 24 23 22 21 21 20 20 20 19 19 19 19 19 19 19 19 18 18 18 18 18 18 18 18 18 18 18 18 18 18 18 18 18 18 18 18 18 18 18 17
27 26 25 24 23 22 21 21 20 20 20 20 20 19 19 19 19 19 19 18 18 18 18 18 18 18 18 18 18 18 18 18 18 18 18 18 18 18 18 18 18 18 17
27 26 25 24 24 22 22 21 21 20 20 20 20 19 19 19 19 19 19 19 18 18 18 18 18 18 18 18 18 18 18 18 18 18 18 18 18 17 18 18 18 18 17
28 26 25 25 24 23 22 21 21 21 20 20 19 19 19 19 19 19 19 19 18 18 18 18 18 18 18 18 18 18 18 18 18 18 18 18 18 17 17 17 17 17 17
29 27 26 25 24 23 22 22 21 21 21 20 20 20 19 19 19 19 19 19 19 18 18 18 18 18 18 18 18 18 18 17 17 17 18 18 18 17 17 17 17 17 17
29 28 26 25 25 24 23 22 21 21 21 20 20 20 19 19 19 19 19 19 19 19 19 18 18 18 18 18 18 18 18 17 17 17 17 17 17 17 17 17 17 17 17
29 28 27 25 25 24 23 22 21 21 21 20 20 20 20 19 19 19 19 19 19 19 19 18 18 18 18 18 17 17 17 17 17 17 17 17 17 17 17 17 17 16 17
29 28 27 26 25 24 23 22 21 21 21 21 20 20 20 20 19 19 19 19 19 19 19 18 18 18 18 18 17 17 17 17 17 17 17 17 17 17 17 17 17 16 16
29 28 27 26 25 24 23 22 21 21 21 21 20 20 20 20 19 19 19 19 19 19 19 18 18 18 18 18 17 17 17 17 17 17 17 17 17 17 17 16 16 16 16
29 28 27 26 25 24 23 22 21 21 21 21 20 20 20 20 19 19 19 19 19 19 19 18 18 18 18 18 18 17 17 17 17 17 17 17 17 17 16 16 16 16 16
29 28 27 26 25 24 23 22 21 21 21 20 20 20 20 20 19 19 19 19 19 19 19 18 18 18 18 18 17 17 17 17 17 17 17 16 16 16 16 16 16 16 16
27 27 26 25 25 24 23 22 21 21 21 20 20 20 20 20 19 19 19 19 19 19 18 18 18 18 18 17 17 17 17 17 16 16 16 16 16 16 16 16 16 15 15
26 26 25 25 24 24 23 22 22 21 20 20 20 20 19 19 19 19 19 19 19 19 18 18 18 18 17 17 17 17 17 16 16 16 16 16 16 16 16 15 15 15 15
25 25 24 24 24 23 23 22 22 21 21 20 20 20 19 19 19 19 19 19 19 18 18 18 18 17 17 17 17 17 16 16 16 16 16 16 16 16 15 15 15 15 15
25 25 24 23 23 23 22 22 21 21 21 20 20 20 19 19 19 19 19 18 18 18 18 18 17 17 17 17 17 16 16 16 16 16 16 15 15 15 15 15 15 15 14
24 24 23 23 22 22 22 22 21 21 21 20 20 19 19 19 19 18 18 18 18 18 18 17 17 17 17 17 17 16 16 16 16 16 15 15 15 15 15 14 14 14 14
24 23 23 22 22 21 21 21 21 20 20 20 19 19 19 19 19 18 18 18 18 17 17 17 17 17 17 17 17 16 16 16 16 15 15 14 14 14 14 14 14 14 14
23 22 22 22 21 21 21 20 20 20 20 19 19 19 19 18 18 18 18 17 17 17 17 17 17 17 17 16 16 16 16 16 15 15 15 14 14 14 14 14 14 13 13
22 22 22 22 21 21 20 20 19 19 19 19 19 18 18 18 18 18 17 17 17 17 17 17 17 17 17 16 16 16 15 15 15 14 14 14 14 14 14 13 13 13 13
21 21 21 21 21 20 20 19 19 19 19 18 18 18 18 18 18 18 17 17 17 17 16 16 16 16 16 16 16 16 15 15 14 14 14 14 14 14 14 13 13 13 13
20 20 20 20 20 20 19 19 19 18 18 18 18 18 18 17 17 17 17 17 17 16 16 16 16 16 16 16 16 15 15 14 14 14 14 14 14 13 13 13 13 13 12
19 19 19 19 19 19 19 18 18 18 18 18 17 17 17 17 17 17 17 16 16 16 16 15 15 15 15 15 15 15 14 14 14 14 13 13 13 13 13 13 12 12 12
18 18 18 18 18 18 18 18 18 18 18 17 17 17 17 16 16 16 16 16 16 15 15 15 15 15 15 15 15 14 14 14 14 13 13 13 13 13 13 12 12 12 12
17 17 17 17 17 17 17 17 17 17 17 17 17 16 16 16 16 16 16 15 15 15 15 15 15 14 14 14 14 14 14 13 13 13 13 13 12 12 12 12 12 11 11
17 16 17 17 17 17 17 17 17 16 16 16 16 16 16 16 16 15 15 15 15 15 15 15 14 14 14 14 14 14 13 13 13 13 12 12 12 12 11 11 11 11 11
16 16 16 16 16 16 16 16 16 16 16 16 15 15 15 15 15 15 15 15 15 15 14 14 14 14 14 14 13 13 13 13 13 12 12 11 11 11 11 11 11 11 10
Wind_Speed
14 14 13 14 13 11 10 9 8 8 6 4 4 4 3 3 3 3 5 5 4 4 3 1 1 1 1 1 1 1 1 2 1 1 1 2 2 2 2 2 1 1 3
13 13 12 12 13 12 11 10 8 8 8 6 4 3 3 3 3 2 4 4 4 4 4 2 1 2 1 1 1 1 1 2 1 1 1 1 1 1 1 2 2 2 2
15 14 12 12 13 13 12 11 10 9 9 7 5 4 3 2 2 4 3 3 4 5 3 3 2 1 2 2 2 2 1 1 2 1 1 1 1 1 1 1 1 2 2
15 14 13 13 13 13 12 10 10 9 8 7 6 6 5 3 3 3 4 4 4 4 3 2 2 1 1 1 2 2 1 1 2 2 2 2 1 1 1 1 1 1 2
15 15 15 13 12 13 12 11 10 9 9 8 6 5 4 4 3 3 4 4 4 3 3 3 2 2 1 1 0 1 1 1 1 2 2 2 2 2 2 2 1 1 1
13 14 14 12 11 11 11 11 11 9 9 8 7 6 5 4 3 3 4 4 4 4 4 4 3 3 2 2 2 1 1 1 2 2 2 1 1 2 2 2 2 2 2
12 12 13 13 11 11 11 11 11 10 9 9 8 7 6 5 5 5 5 4 3 4 4 4 4 3 3 3 2 2 2 2 2 2 2 2 2 2 1 2 2 2 2
10 12 12 12 11 12 11 12 11 10 10 9 8 7 6 6 5 5 4 4 2 3 4 4 4 4 3 3 3 2 3 3 2 3 2 2 2 2 1 2 2 2 2
10 12 12 12 11 11 10 10 10 9 9 9 8 6 6 5 5 4 4 3 2 3 3 4 4 4 3 3 3 2 2 2 2 2 2 2 2 2 1 1 2 2 3
10 12 12 11 11 11 10 10 9 8 7 7 8 8 7 6 4 4 5 3 3 2 2 3 4 4 4 3 3 2 2 2 1 1 0 1 2 2 2 2 2 2 2
7 9 10 10 10 11 11 10 10 9 8 7 6 5 6 6 6 4 4 4 4 3 4 4 4 4 3 3 2 2 2 1 1 1 1 1 1 2 2 2 2 1 0
5 7 8 7 7 8 10 10 9 9 8 7 7 6 6 6 6 6 5 5 4 5 4 4 3 3 3 3 3 2 2 2 2 1 0 1 1 2 2 2 2 1 1
4 7 7 6 6 6 6 8 8 9 8 8 7 7 7 7 7 6 6 5 5 5 4 4 4 3 3 3 3 2 1 1 1 0 0 1 1 2 2 2 1 1 1
4 6 6 5 5 5 5 5 6 7 7 7 7 7 7 6 6 6 6 6 6 5 4 4 4 4 3 2 2 2 2 1 1 0 0 0 1 2 2 2 1 1 2
4 5 5 5 5 5 5 4 4 5 6 6 7 6 6 6 6 6 5 5 6 6 5 4 3 3 3 2 2 2 3 2 2 1 1 1 1 0 1 1 1 1 1
5 4 4 4 4 3 4 4 4 4 4 6 6 6 6 5 5 5 6 5 5 5 5 5 4 3 3 3 3 1 1 1 2 2 1 2 2 1 1 2 1 1 2
4 3 2 3 3 3 2 3 4 4 4 4 4 5 6 6 6 6 6 6 6 5 5 5 5 4 3 4 3 1 1 1 1 1 2 3 1 1 1 1 2 2 3
2 2 1 1 2 2 2 1 3 4 4 5 5 6 6 6 5 5 5 5 5 5 5 5 5 4 4 4 3 0 2 1 1 1 1 1 1 1 2 2 2 1 1
2 1 1 0 1 1 2 2 3 4 5 5 4 5 5 5 5 6 5 5 5 5 6 5 5 5 4 4 3 2 2 2 2 1 0 1 1 2 2 1 1 1 1
3 2 2 1 1 1 2 4 4 4 4 4 4 4 5 6 6 5 5 4 4 4 4 5 5 5 4 4 4 3 3 3 3 2 1 1 1 0 1 1 1 2 1
4 4 4 2 1 0 1 3 3 3 3 3 4 5 5 5 5 5 5 4 4 4 4 4 4 5 5 5 5 3 2 3 3 3 2 1 2 1 0 1 2 3 2
5 5 4 4 2 1 1 2 3 2 2 3 4 4 5 5 5 5 5 5 5 5 5 5 5 5 4 5 5 5 3 2 1 1 2 2 3 2 1 1 2 3 2
5 5 4 4 3 2 1 2 2 2 3 3 4 4 4 4 5 6 6 5 5 6 6 6 6 5 5 4 5 6 4 2 1 0 2 3 3 2 2 3 3 2 2
4 4 4 4 4 3 2 2 1 2 3 3 3 3 4 4 4 4 5 5 5 5 5 5 4 4 5 4 3 3 3 3 2 2 3 4 4 3 2 2 3 3 2
3 4 4 3 4 4 2 2 2 2 3 3 3 3 4 4 4 3 2 3 2 2 3 2 2 3 4 4 5 4 3 3 3 3 3 2 2 3 3 2 2 2 2
3 3 4 5 5 5 3 3 2 2 2 3 3 3 3 3 4 4 2 4 3 5 6 4 3 2 4 6 6 5 4 3 3 3 2 2 2 2 2 2 2 2 2
Wind_Direction
172 169 168 165 161 158 161 169 179 166 171 184 191 186 184 190 179 179 166 168 187 195 210 252 166 204 183 181 187 177 200 214 204 224 313 294 274 220 190 190 178 189 182
168 166 169 169 165 163 166 170 179 175 179 182 191 192 194 192 179 168 149 171 180 194 203 209 207 185 189 199 216 194 228 245 201 200 195 261 289 288 242 169 176 196 179
172 169 172 175 170 169 173 181 179 176 185 180 186 195 177 211 177 157 161 174 178 197 217 171 208 223 179 181 202 196 206 243 248 228 179 194 219 317 281 216 186 182 192
173 171 176 179 178 174 176 171 170 173 177 183 196 194 189 190 190 169 159 169 182 191 191 182 178 212 196 181 206 165 206 234 248 252 240 234 190 202 255 255 241 224 210
174 173 179 181 180 176 172 168 167 171 176 186 193 200 203 191 179 167 161 171 180 186 185 178 177 172 193 188 185 113 191 220 245 250 250 252 263 235 224 243 245 278 263
169 169 172 170 175 171 166 164 165 171 176 184 190 194 202 196 180 175 174 186 180 183 183 180 178 179 195 192 195 207 224 234 258 276 276 248 251 254 236 234 241 245 257
163 162 163 164 166 166 165 164 166 173 178 183 189 190 200 199 195 199 197 198 188 178 183 186 179 185 193 197 196 188 235 239 242 252 270 274 269 269 246 225 238 261 264
161 160 165 164 166 168 166 165 167 174 180 184 187 188 192 200 203 208 205 202 204 181 174 175 180 189 198 208 181 206 215 214 230 247 251 270 274 282 251 229 221 253 255
162 158 162 162 164 165 162 164 164 172 181 182 180 186 193 204 202 187 204 206 194 189 168 175 185 190 203 217 188 203 218 197 223 252 261 264 278 286 291 257 232 228 241
157 158 162 163 163 165 163 160 160 167 174 179 186 190 193 197 192 199 198 198 188 184 173 180 190 195 199 200 198 199 200 205 213 223 275 290 300 308 311 282 266 259 245
141 150 153 157 160 162 163 165 162 167 178 185 186 186 187 190 190 198 197 190 186 186 192 198 199 190 188 189 184 193 198 202 213 244 230 256 292 318 317 316 297 281 206
114 130 134 143 155 164 164 161 165 174 179 180 181 186 183 185 189 194 195 190 187 194 194 192 190 188 180 180 180 193 198 200 216 226 281 304 294 292 294 298 296 286 256
100 106 118 137 145 151 156 161 169 175 179 177 179 183 185 187 191 190 189 187 186 188 187 179 180 177 177 180 173 179 188 190 181 202 241 279 297 283 280 277 286 276 275
98 104 116 123 131 134 130 147 170 172 172 170 173 176 185 185 187 190 187 183 180 181 181 177 170 161 166 169 164 167 176 182 171 145 201 266 285 287 281 269 274 273 269
100 91 106 116 122 121 132 147 162 162 166 168 175 174 179 179 179 182 178 179 181 180 167 165 161 164 174 177 185 195 196 196 210 209 197 160 139 125 290 282 280 273 272
90 82 86 104 117 125 148 153 155 154 158 172 181 172 172 174 174 174 174 177 182 174 165 167 171 181 180 128 129 192 192 197 224 232 222 194 171 167 199 231 249 233 242
86 79 68 100 119 131 143 168 162 161 166 175 177 166 170 179 175 183 180 178 181 179 176 174 176 167 147 139 130 127 218 199 233 279 290 285 285 160 259 242 234 237 231
88 70 50 87 119 137 142 198 183 169 180 187 186 178 177 181 174 178 186 186 182 184 183 183 181 168 166 158 143 216 210 201 210 234 276 306 333 330 309 250 219 209 230
46 35 336 324 92 138 148 172 204 193 196 197 193 183 177 183 180 184 190 190 189 189 185 183 183 174 170 167 170 208 218 201 205 210 222 183 266 334 338 263 230 203 221
22 358 340 0 51 84 159 186 207 201 205 201 193 182 180 188 190 188 188 188 189 191 189 185 178 177 173 171 177 203 228 212 200 186 165 125 162 79 37 250 241 236 242
14 3 354 353 12 56 221 201 202 206 201 195 191 186 185 192 188 180 183 182 184 180 186 181 180 175 173 165 172 186 240 245 218 195 174 132 136 134 39 280 261 254 258
14 6 5 359 353 326 249 223 209 198 186 191 184 185 185 199 194 181 185 187 184 183 193 196 192 179 171 164 177 184 204 273 267 219 150 141 159 176 235 250 279 283 263
11 1 355 352 354 346 307 259 223 195 197 196 193 191 191 191 186 185 193 197 198 201 198 199 200 181 165 159 169 187 200 214 212 111 136 168 186 201 233 235 249 266 258
359 355 355 354 351 346 335 313 252 210 207 210 207 198 187 191 187 185 195 199 204 209 202 196 194 172 160 161 172 187 184 176 184 199 198 194 203 225 252 234 228 226 239
350 351 346 345 341 340 345 336 308 232 217 216 207 205 199 187 165 171 186 191 186 204 203 203 193 184 180 183 177 181 185 191 194 200 201 199 206 213 213 210 212 223 236
343 347 344 340 337 337 338 335 314 234 217 221 214 213 203 181 172 162 129 61 102 95 91 103 126 132 143 157 162 167 174 180 187 196 206 215 223 229 233 230 226 224 231
Height
1515 1519 1522 1525 1528 1530 1531 1534 1536 1537 1538 1540 1542 1543 1544 1545 1546 1547 1547 1548 1548 1549 1550 1551 1552 1552 1554 1554 1555 1556 1556 1556 1557 1557 1557 1558 1558 1558 1558 1559 1559 1560 1561
1512 1516 1520 1523 1525 1527 1529 1532 1534 1535 1537 1539 1540 1542 1543 1544 1545 1546 1546 1547 1547 1548 1549 1550 1551 1551 1552 1553 1554 1554 1555 1555 1556 1556 1556 1556 1557 1556 1557 1557 1557 1558 1558
1508 1513 1517 1520 1523 1525 1527 1530 1531 1533 1535 1537 1539 1541 1542 1543 1544 1545 1545 1545 1546 1546 1547 1548 1549 1550 1551 1551 1552 1552 1553 1554 1555 1555 1555 1555 1555 1555 1555 1555 1556 1556 1556
1505 1510 1514 1517 1520 1523 1525 1527 1529 1531 1533 1535 1537 1539 1540 1541 1542 1543 1544 1544 1545 1545 1546 1547 1548 1549 1549 1550 1550 1551 1551 1552 1552 1553 1553 1554 1554 1554 1553 1554 1553 1554 1554
1500 1506 1510 1514 1518 1521 1523 1525 1527 1529 1531 1533 1535 1537 1539 1540 1541 1542 1543 1543 1543 1544 1545 1545 1546 1547 1548 1548 1549 1550 1550 1550 1551 1551 1551 1551 1552 1552 1552 1552 1552 1552 1552
1497 1502 1507 1511 1515 1518 1521 1523 1524 1526 1529 1531 1533 1535 1537 1538 1540 1541 1541 1542 1542 1543 1543 1544 1544 1545 1546 1546 1547 1548 1548 1549 1549 1549 1549 1550 1550 1550 1550 1550 1550 1550 1550
1494 1499 1504 1508 1512 1516 1518 1520 1522 1524 1526 1528 1530 1532 1534 1536 1537 1539 1540 1541 1541 1541 1542 1542 1543 1543 1544 1545 1545 1546 1546 1546 1547 1547 1547 1547 1548 1548 1548 1548 1547 1547 1547
1492 1496 1501 1506 1509 1513 1516 1518 1519 1522 1524 1526 1528 1530 1532 1534 1535 1537 1538 1539 1540 1540 1541 1541 1541 1542 1542 1543 1543 1543 1544 1544 1545 1545 1545 1545 1545 1545 1545 1545 1545 1544 1544
1489 1493 1499 1503 1507 1510 1513 1515 1517 1519 1522 1524 1526 1528 1530 1532 1533 1535 1536 1537 1538 1539 1539 1539 1540 1540 1540 1541 1541 1542 1542 1542 1543 1543 1543 1543 1543 1543 1543 1542 1542 1543 1542
1487 1491 1497 1501 1505 1508 1511 1513 1515 1517 1519 1521 1523 1525 1527 1529 1531 1532 1534 1535 1536 1536 1537 1537 1538 1538 1538 1539 1539 1540 1540 1541 1541 1541 1540 1540 1540 1540 1540 1540 1539 1539 1539
1487 1489 1495 1500 1503 1506 1508 1511 1513 1515 1517 1519 1520 1523 1524 1526 1528 1529 1530 1532 1533 1533 1534 1535 1535 1536 1536 1537 1537 1538 1538 1539 1539 1539 1539 1538 1538 1538 1537 1537 1537 1536 1536
1487 1490 1493 1497 1502 1505 1507 1508 1510 1513 1515 1516 1518 1520 1522 1523 1525 1526 1527 1529 1530 1531 1532 1532 1533 1534 1534 1535 1535 1536 1536 1537 1537 1537 1536 1536 1535 1535 1534 1534 1534 1534 1534
1488 1490 1494 1497 1500 1503 1505 1507 1509 1511 1513 1514 1515 1517 1518 1520 1522 1523 1524 1526 1527 1528 1529 1530 1530 1531 1532 1533 1533 1534 1534 1534 1534 1534 1534 1533 1532 1532 1532 1531 1531 1531 1531
1489 1491 1493 1495 1498 1501 1503 1505 1507 1509 1510 1511 1512 1514 1515 1517 1519 1521 1522 1523 1524 1525 1526 1528 1528 1529 1530 1531 1531 1531 1532 1531 1531 1531 1531 1530 1530 1529 1529 1528 1528 1528 1528
1490 1492 1494 1495 1497 1499 1501 1503 1506 1507 1508 1509 1510 1511 1513 1514 1516 1518 1520 1521 1522 1523 1525 1526 1526 1527 1528 1528 1528 1529 1529 1529 1528 1528 1528 1528 1527 1527 1526 1526 1525 1525 1525
1491 1493 1494 1495 1497 1498 1500 1501 1504 1505 1506 1507 1508 1509 1511 1512 1514 1515 1517 1518 1520 1521 1522 1523 1524 1524 1525 1525 1526 1526 1526 1526 1526 1526 1525 1525 1524 1524 1524 1523 1523 1522 1522
1492 1493 1495 1495 1496 1498 1499 1500 1502 1503 1505 1506 1507 1507 1508 1510 1511 1513 1513 1514 1516 1518 1519 1520 1521 1521 1522 1522 1523 1524 1524 1524 1523 1523 1523 1522 1522 1521 1521 1520 1520 1520 1519
1491 1493 1495 1495 1496 1497 1498 1500 1501 1502 1503 1503 1505 1505 1506 1507 1508 1510 1511 1512 1513 1515 1516 1516 1518 1518 1519 1520 1520 1521 1521 1521 1520 1520 1520 1519 1519 1518 1518 1517 1517 1516 1516
1491 1493 1494 1495 1495 1496 1496 1498 1499 1500 1500 1501 1502 1503 1504 1505 1505 1507 1508 1510 1511 1512 1512 1513 1514 1515 1515 1516 1517 1518 1517 1517 1517 1517 1517 1516 1516 1515 1515 1514 1514 1514 1514
1491 1491 1493 1493 1494 1494 1495 1495 1496 1496 1497 1498 1499 1500 1501 1502 1502 1504 1505 1506 1508 1509 1509 1509 1510 1511 1512 1513 1513 1514 1514 1514 1514 1514 1513 1513 1513 1513 1512 1511 1511 1511 1511
1490 1490 1491 1492 1492 1492 1492 1492 1493 1493 1494 1495 1496 1497 1498 1499 1500 1501 1502 1503 1504 1505 1506 1506 1507 1508 1509 1510 1510 1511 1511 1511 1511 1511 1510 1510 1510 1510 1510 1509 1509 1509 1509
1489 1489 1489 1489 1490 1489 1489 1489 1489 1490 1491 1491 1492 1493 1494 1496 1497 1498 1499 1500 1501 1502 1503 1504 1504 1505 1506 1507 1507 1508 1508 1509 1509 1508 1508 1508 1508 1508 1507 1507 1507 1507 1507
1489 1488 1488 1487 1487 1487 1487 1487 1487 1487 1488 1488 1489 1489 1490 1492 1494 1495 1496 1497 1498 1498 1499 1500 1501 1501 1502 1503 1504 1505 1505 1506 1506 1505 1505 1505 1505 1505 1505 1505 1505 1505 1505
1488 1487 1486 1486 1485 1485 1484 1484 1484 1484 1485 1485 1486 1487 1488 1489 1490 1491 1492 1493 1494 1495 1496 1497 1498 1498 1498 1499 1500 1501 1502 1502 1503 1503 1503 1503 1503 1503 1502 1502 1503 1503 1503
1487 1486 1485 1484 1483 1483 1482 1481 1481 1481 1481 1482 1483 1484 1485 1485 1486 1487 1488 1489 1490 1491 1493 1493 1494 1495 1495 1496 1497 1498 1498 1499 1500 1500 1500 1500 1500 1500 1500 1500 1500 1500 1500
1485 1484 1483 1483 1482 1480 1479 1479 1478 1478 1478 1479 1480 1481 1482 1482 1483 1484 1485 1485 1487 1487 1488 1489 1491 1491 1492 1493 1494 1495 1496 1497 1497 1497 1497 1497 1498 1498 1498 1498 1498 1497 1497